Ballina Observation History
Time Wind Speed Temp Pressure Rel. Hum Rain
05/09:30pm W 2-3 kts 11.2°c 1026.4 hPa 96% 0.0mm
05/09:11pm W 3 kts 11.2°c 1026.4 hPa 95% 0.0mm
05/09:00pm W 2-4 kts 11.1°c 1026.5 hPa 94% 0.0mm
05/08:53pm CALM 0 kts 11.3°c 1026.5 hPa 94% 0.0mm
05/08:30pm CALM 0 kts 11.6°c 1026.6 hPa 92% 0.0mm
05/08:00pm CALM 0 kts 12.8°c 1026.5 hPa 94% 0.0mm
05/07:30pm W 3-4 kts 13.4°c 1026.4 hPa 91% 0.0mm
05/07:00pm W 4-5 kts 13.1°c 1026.4 hPa 90% 0.0mm
05/06:30pm W 5-6 kts 13.6°c 1026.2 hPa 90% 0.0mm
05/06:00pm SW 5-6 kts 14.6°c 1026.0 hPa 82% 0.0mm
05/05:30pm SSW 6-8 kts 16.8°c 1025.8 hPa 75% 0.0mm
05/05:00pm S 8-11 kts 17.2°c 1025.5 hPa 75% 0.0mm
05/04:30pm S 9-12 kts 17.8°c 1025.5 hPa 73% 0.0mm
05/04:00pm SSE 11-16 kts 18.4°c 1025.6 hPa 69% 0.0mm
05/03:30pm S 13-17 kts 18.7°c 1025.6 hPa 68% 0.0mm
05/03:00pm S 13-18 kts 19.0°c 1025.7 hPa 68% 0.0mm
05/02:30pm SSE 12-16 kts 19.0°c 1025.9 hPa 66% 0.0mm
05/02:00pm S 12-16 kts 19.2°c 1026.0 hPa 66% 0.0mm
05/01:30pm S 13-17 kts 19.5°c 1026.3 hPa 62% 0.0mm
05/01:00pm S 10-14 kts 19.6°c 1026.6 hPa 62% 0.0mm
05/12:30pm S 12-16 kts 19.4°c 1027.0 hPa 63% 0.0mm
05/12:00pm SSW 9-13 kts 18.8°c 1027.7 hPa 63% 0.0mm
05/11:30am SW 10-13 kts 18.9°c 1028.0 hPa 64% 0.0mm
05/11:00am SW 10-15 kts 18.9°c 1028.4 hPa 66% 0.0mm
05/10:30am SW 13-18 kts 17.8°c 1028.5 hPa 68% 0.0mm
05/10:00am SW 12-16 kts 17.3°c 1028.8 hPa 68% 0.0mm
05/09:30am SW 11-17 kts 16.0°c 1029.0 hPa 72% 0.0mm
05/09:00am WSW 10-15 kts 15.7°c 1028.8 hPa 74% 3.0mm
05/08:30am WSW 9-12 kts 14.8°c 1028.6 hPa 77% 3.0mm
05/08:00am WSW 9-15 kts 13.9°c 1028.4 hPa 79% 3.0mm
05/07:30am WSW 9-13 kts 13.9°c 1028.1 hPa 80% 3.0mm
05/07:00am WSW 8-11 kts 13.5°c 1027.9 hPa 81% 3.0mm
05/06:30am WSW 8-10 kts 12.9°c 1027.6 hPa 85% 3.0mm
05/06:00am WSW 9-11 kts 12.8°c 1027.5 hPa 84% 3.0mm
05/05:30am WSW 9-12 kts 13.0°c 1027.4 hPa 82% 3.0mm
05/05:00am WSW 10-15 kts 13.0°c 1027.2 hPa 83% 3.0mm
05/04:30am WSW 11-15 kts 13.2°c 1026.9 hPa 82% 3.0mm
05/04:00am WSW 6-9 kts 13.0°c 1027.2 hPa 88% 3.0mm
05/03:30am WSW 10-13 kts 13.1°c 1027.2 hPa 89% 2.8mm
05/03:06am WSW 11-13 kts 12.9°c 1027.4 hPa 90% 2.4mm
05/03:00am WSW 12-15 kts 13.0°c 1027.4 hPa 89% 2.4mm
05/02:48am WSW 11-15 kts 13.4°c 1027.6 hPa 87% 2.2mm
05/02:30am WSW 8-11 kts 13.9°c 1027.6 hPa 82% 2.0mm
05/02:00am WSW 6-9 kts 13.9°c 1027.7 hPa 87% 2.0mm
05/01:30am WSW 6-9 kts 13.9°c 1027.9 hPa 87% 2.0mm
05/01:06am WSW 6-9 kts 13.8°c 1028.1 hPa 92% 2.0mm
05/01:00am WSW 7-9 kts 13.8°c 1028.2 hPa 91% 2.0mm
05/12:30am SSW 8-11 kts 14.1°c 1028.7 hPa 90% 1.4mm
05/12:29am SSW 8-11 kts 14.1°c 1028.7 hPa 90% 1.2mm
05/12:00am SW 12-17 kts 14.4°c 1028.5 hPa 88% 1.2mm
Time Wind Speed Temp Pressure Rel. Hum Rain
04/11:30pm SW 11-14 kts 14.6°c 1028.8 hPa 90% 1.2mm
04/11:00pm SW 8-11 kts 15.2°c 1028.8 hPa 85% 1.2mm
04/10:34pm SW 7-11 kts 15.1°c 1028.9 hPa 89% 1.2mm
04/10:30pm SW 8-11 kts 15.2°c 1028.9 hPa 89% 1.2mm
04/10:00pm SSW 8-11 kts 14.8°c 1029.0 hPa 81% 0.4mm
04/09:58pm SSW 8-11 kts 14.9°c 1029.0 hPa 80% 0.4mm
04/09:30pm WSW 8-12 kts 14.9°c 1028.9 hPa 72% 0.2mm
04/09:00pm WSW 8-11 kts 15.6°c 1029.2 hPa 72% 0.2mm
04/08:30pm SW 6-9 kts 15.3°c 1029.1 hPa 77% 0.2mm
04/08:00pm SW 6-8 kts 15.4°c 1029.2 hPa 76% 0.2mm
04/07:30pm SW 9-13 kts 15.7°c 1028.8 hPa 73% 0.0mm
04/07:00pm SW 9-13 kts 16.0°c 1028.6 hPa 72% 0.0mm
04/06:30pm SW 6-9 kts 15.6°c 1028.6 hPa 76% 0.0mm
04/06:00pm SW 9-13 kts 16.2°c 1028.3 hPa 72% 0.0mm
04/05:30pm SSW 12-18 kts 16.5°c 1027.9 hPa 75% 0.0mm
04/05:00pm SW 8-13 kts 16.3°c 1027.6 hPa 79% 0.0mm
04/04:30pm SSW 13-20 kts 16.4°c 1027.7 hPa 79% 0.0mm
04/04:00pm S 14-22 kts 15.9°c 1027.6 hPa 87% 0.0mm
04/03:30pm SSW 12-21 kts 17.3°c 1027.4 hPa 74% 0.0mm
04/03:00pm SSW 14-21 kts 17.6°c 1027.3 hPa 73% 0.0mm
04/02:30pm S 15-21 kts 17.9°c 1027.2 hPa 70% 0.0mm
04/02:00pm S 16-26 kts 18.1°c 1027.4 hPa 69% 0.0mm
04/01:30pm SSW 16-25 kts 17.8°c 1027.5 hPa 71% 0.0mm
04/01:09pm SSW 15-26 kts 17.9°c 1027.7 hPa 68% 0.0mm
04/01:00pm SSW 17-23 kts 18.3°c 1027.7 hPa 68% 0.0mm
04/12:50pm SSW 16-29 kts 17.9°c 1027.8 hPa 67% 0.0mm
04/12:30pm SSW 13-19 kts 17.4°c 1028.0 hPa 73% 0.0mm
04/12:09pm SSW 15-25 kts 17.4°c 1028.3 hPa 70% 0.0mm
04/12:00pm SSW 15-24 kts 17.9°c 1028.4 hPa 71% 0.0mm
04/11:30am SW 11-19 kts 16.0°c 1028.8 hPa 72% 0.0mm
04/11:00am SSW 12-17 kts 15.7°c 1029.2 hPa 75% 0.0mm
04/10:30am SSW 14-22 kts 16.3°c 1029.1 hPa 68% 0.0mm
04/10:00am SSW 13-22 kts 15.8°c 1028.9 hPa 66% 0.0mm
04/09:30am SW 10-16 kts 15.6°c 1029.0 hPa 66% 0.0mm
04/09:00am SW 10-13 kts 14.5°c 1028.8 hPa 67% 0.0mm
04/08:30am WSW 10-15 kts 14.2°c 1028.3 hPa 64% 0.0mm
04/08:00am SW 10-13 kts 14.0°c 1028.0 hPa 64% 0.0mm
04/07:30am WSW 9-11 kts 12.9°c 1027.6 hPa 66% 0.0mm
04/07:00am SW 9-14 kts 13.1°c 1027.4 hPa 73% 0.0mm
04/06:30am SW 10-13 kts 13.1°c 1027.1 hPa 64% 0.0mm
04/06:00am WSW 11-13 kts 13.1°c 1026.8 hPa 63% 0.0mm
04/05:30am WSW 11-17 kts 13.8°c 1026.2 hPa 60% 0.0mm
04/05:00am SW 9-12 kts 14.0°c 1025.9 hPa 59% 0.0mm
04/04:30am SW 10-16 kts 13.9°c 1025.8 hPa 57% 0.0mm
04/04:00am WSW 8-11 kts 13.7°c 1025.5 hPa 58% 0.0mm
04/03:30am SW 11-15 kts 14.3°c 1025.6 hPa 54% 0.0mm
04/03:00am SW 9-13 kts 14.3°c 1025.6 hPa 54% 0.0mm
04/02:30am SW 11-18 kts 13.9°c 1025.7 hPa 55% 0.0mm
04/02:00am SW 10-13 kts 14.0°c 1025.8 hPa 56% 0.0mm
04/01:30am WSW 8-13 kts 13.9°c 1025.9 hPa 62% 0.0mm
04/01:00am SW 9-13 kts 14.3°c 1025.7 hPa 62% 0.0mm
04/12:30am SW 9-12 kts 13.6°c 1025.6 hPa 70% 0.0mm
04/12:00am SW 7-9 kts 13.6°c 1025.7 hPa 68% 0.0mm
Time Wind Speed Temp Pressure Rel. Hum Rain
03/11:30pm SW 7-10 kts 13.6°c 1025.7 hPa 65% 0.0mm
03/11:00pm SW 10-13 kts 14.0°c 1025.7 hPa 64% 0.0mm
03/10:30pm WSW 9-12 kts 14.3°c 1025.7 hPa 64% 0.0mm
03/10:00pm WSW 8-10 kts 13.6°c 1025.5 hPa 69% 0.0mm
03/09:30pm WSW 7-9 kts 13.0°c 1025.4 hPa 72% 0.0mm
03/09:00pm WSW 9-12 kts 15.1°c 1025.1 hPa 62% 0.0mm
03/08:30pm S 15-22 kts 18.5°c 1024.8 hPa 49% 0.0mm
03/08:00pm S 12-17 kts 18.1°c 1024.5 hPa 52% 0.0mm
03/07:30pm S 11-19 kts 17.4°c 1024.3 hPa 53% 0.0mm
03/07:00pm S 10-14 kts 17.5°c 1023.9 hPa 59% 0.0mm
03/06:30pm S 11-18 kts 17.7°c 1023.4 hPa 61% 0.0mm
03/06:00pm S 11-17 kts 17.3°c 1022.7 hPa 63% 0.0mm
03/05:30pm S 10-15 kts 17.0°c 1022.2 hPa 63% 0.0mm
03/05:00pm S 12-16 kts 17.4°c 1021.8 hPa 57% 0.0mm
03/04:30pm S 10-16 kts 17.6°c 1021.5 hPa 57% 0.0mm
03/04:00pm S 10-13 kts 17.9°c 1021.3 hPa 51% 0.0mm
03/03:30pm S 11-16 kts 18.1°c 1021.0 hPa 47% 0.0mm
03/03:00pm S 12-17 kts 18.2°c 1020.7 hPa 45% 0.0mm
03/02:30pm S 10-15 kts 18.6°c 1020.4 hPa 46% 0.0mm
03/02:00pm S 7-11 kts 18.8°c 1020.0 hPa 43% 0.0mm
03/01:30pm SSW 7-10 kts 18.7°c 1019.9 hPa 40% 0.0mm
03/01:00pm SW 7-12 kts 18.6°c 1020.1 hPa 39% 0.0mm
03/12:30pm WSW 6-9 kts 18.4°c 1020.5 hPa 39% 0.0mm
03/12:00pm SW 7-10 kts 18.0°c 1020.9 hPa 41% 0.0mm
03/11:30am SW 7-11 kts 17.7°c 1021.1 hPa 37% 0.0mm
03/11:00am WSW 7-10 kts 17.6°c 1021.4 hPa 38% 0.0mm
03/10:30am WSW 7-10 kts 16.7°c 1021.7 hPa 40% 0.0mm
03/10:00am WSW 10-12 kts 16.1°c 1021.8 hPa 44% 0.0mm
03/09:30am W 9-12 kts 15.7°c 1021.8 hPa 49% 0.0mm
03/09:00am WSW 9-12 kts 14.8°c 1021.4 hPa 51% 0.0mm
03/08:30am WSW 6-9 kts 13.8°c 1021.2 hPa 57% 0.0mm
03/08:00am WSW 7-9 kts 12.8°c 1021.1 hPa 59% 0.0mm
03/07:30am W 6-9 kts 10.9°c 1020.7 hPa 64% 0.0mm
03/07:00am WNW 4-6 kts 8.0°c 1020.7 hPa 77% 0.0mm
03/06:30am W 5 kts 8.7°c 1020.2 hPa 68% 0.0mm
03/06:00am W 3-5 kts 8.7°c 1019.8 hPa 69% 0.0mm
03/05:30am WSW 7-8 kts 9.1°c 1019.5 hPa 68% 0.0mm
03/05:00am WSW 9-10 kts 8.4°c 1019.0 hPa 71% 0.0mm
03/04:30am W 5-7 kts 9.3°c 1019.0 hPa 65% 0.0mm
03/04:00am WNW 6-9 kts 10.0°c 1018.8 hPa 61% 0.0mm
03/03:30am WNW 9-13 kts 10.9°c 1018.6 hPa 58% 0.0mm
03/03:00am W 11-15 kts 11.1°c 1018.5 hPa 57% 0.0mm
03/02:30am WNW 10-15 kts 11.3°c 1018.6 hPa 56% 0.0mm
03/02:00am W 11-15 kts 11.3°c 1018.4 hPa 57% 0.0mm
03/01:30am W 11-15 kts 11.0°c 1018.3 hPa 58% 0.0mm
03/01:00am W 12-16 kts 11.5°c 1018.8 hPa 56% 0.0mm
03/12:30am WNW 11-16 kts 12.2°c 1018.9 hPa 53% 0.0mm
03/12:00am W 11-18 kts 12.4°c 1019.1 hPa 53% 0.0mm